SQ6RR-11 Weather Reports


time (UTC)temp
C
wind
direction
speed
KPH
gust
KPH
rain 1hr
cm
rain 24hr
cm
rain mn
cm
humidity
%
barometer
mb
20260504151107 26 0 0.0 0.0 0.00 0.00 0.00 23 1013.4
20260504150647 26 0 0.0 0.0 0.00 0.00 0.00 23 1013.3
20260504150241 27 0 0.0 0.0 0.00 0.00 0.00 22 1013.2
20260504140916 25 0 0.0 0.0 0.00 0.00 0.00 25 1013.7
20260504140457 26 0 0.0 0.0 0.00 0.00 0.00 24 1013.7
20260504130612 26 0 0.0 0.0 0.00 0.00 0.00 23 1013.9
20260504130139 27 0 0.0 0.0 0.00 0.00 0.00 21 1014.0
20260504110612 24 0 0.0 0.0 0.00 0.00 0.00 26 1014.6
20260504110132 23 0 0.0 0.0 0.00 0.00 0.00 26 1014.6
20260504100306 23 0 0.0 0.0 0.00 0.00 0.00 28 1015.3
20260504081532 22 0 0.0 0.0 0.00 0.00 0.00 28 1015.2
20260504081057 22 0 0.0 0.0 0.00 0.00 0.00 30 1015.2
20260504080628 21 0 0.0 0.0 0.00 0.00 0.00 28 1015.1
20260504080147 21 0 0.0 0.0 0.00 0.00 0.00 27 1015.1
20260504070327 20 0 0.0 0.0 0.00 0.00 0.00 33 1015.4
20260504060105 17 0 0.0 0.0 0.00 0.00 0.00 36 1015.4
20260504050332 15 0 0.0 0.0 0.00 0.00 0.00 39 1015.6
20260504045856 15 0 0.0 0.0 0.00 0.00 0.00 39 1015.6
20260504045432 15 0 0.0 0.0 0.00 0.00 0.00 40 1015.7
20260504045000 15 0 0.0 0.0 0.00 0.00 0.00 38 1015.7
20260504044527 15 0 0.0 0.0 0.00 0.00 0.00 39 1015.8
20260504044111 15 0 0.0 0.0 0.00 0.00 0.00 37 1015.7
20260504043629 15 0 0.0 0.0 0.00 0.00 0.00 38 1015.4
20260504043200 15 0 0.0 0.0 0.00 0.00 0.00 37 1015.2
20260504042731 15 0 0.0 0.0 0.00 0.00 0.00 38 1015.1
20260504042252 15 0 0.0 0.0 0.00 0.00 0.00 37 1014.9
20260504041827 15 0 0.0 0.0 0.00 0.00 0.00 37 1014.8
20260504041406 15 0 0.0 0.0 0.00 0.00 0.00 37 1014.7
20260504040917 15 0 0.0 0.0 0.00 0.00 0.00 37 1014.5
20260504040502 15 0 0.0 0.0 0.00 0.00 0.00 37 1014.5
20260504040057 15 0 0.0 0.0 0.00 0.00 0.00 37 1014.4
20260504035617 15 0 0.0 0.0 0.00 0.00 0.00 36 1014.3
20260504035146 15 0 0.0 0.0 0.00 0.00 0.00 37 1014.3
20260504034731 15 0 0.0 0.0 0.00 0.00 0.00 36 1014.4
20260504034314 15 0 0.0 0.0 0.00 0.00 0.00 36 1014.4
20260504033907 15 0 0.0 0.0 0.00 0.00 0.00 36 1014.4
20260504033452 15 0 0.0 0.0 0.00 0.00 0.00 36 1014.3
20260504033016 15 0 0.0 0.0 0.00 0.00 0.00 36 1014.2
20260504032547 15 0 0.0 0.0 0.00 0.00 0.00 36 1014.1
20260504032115 15 0 0.0 0.0 0.00 0.00 0.00 35 1014.2
20260504031645 15 0 0.0 0.0 0.00 0.00 0.00 35 1014.2
20260504031212 15 0 0.0 0.0 0.00 0.00 0.00 35 1014.2
20260504030752 15 0 0.0 0.0 0.00 0.00 0.00 35 1014.2
20260504030320 15 0 0.0 0.0 0.00 0.00 0.00 35 1014.2
20260504025851 15 0 0.0 0.0 0.00 0.00 0.00 35 1014.2
20260504025410 15 0 0.0 0.0 0.00 0.00 0.00 35 1014.2
20260504025005 15 0 0.0 0.0 0.00 0.00 0.00 34 1014.3
20260504024527 15 0 0.0 0.0 0.00 0.00 0.00 34 1014.2
20260504024115 15 0 0.0 0.0 0.00 0.00 0.00 34 1014.2
20260504023637 15 0 0.0 0.0 0.00 0.00 0.00 34 1014.1
20260504023157 15 0 0.0 0.0 0.00 0.00 0.00 34 1014.1
20260504022707 15 0 0.0 0.0 0.00 0.00 0.00 34 1014.1
20260504022227 15 0 0.0 0.0 0.00 0.00 0.00 33 1014.0
20260504021747 15 0 0.0 0.0 0.00 0.00 0.00 34 1014.1
20260504021325 15 0 0.0 0.0 0.00 0.00 0.00 34 1014.2
20260504020842 15 0 0.0 0.0 0.00 0.00 0.00 34 1014.2
20260504020402 15 0 0.0 0.0 0.00 0.00 0.00 34 1014.2
20260504015922 15 0 0.0 0.0 0.00 0.00 0.00 33 1014.3
20260504015450 15 0 0.0 0.0 0.00 0.00 0.00 33 1014.3
20260504015030 15 0 0.0 0.0 0.00 0.00 0.00 34 1014.3
20260504014612 15 0 0.0 0.0 0.00 0.00 0.00 33 1014.2
20260504014142 15 0 0.0 0.0 0.00 0.00 0.00 33 1014.2
20260504013657 15 0 0.0 0.0 0.00 0.00 0.00 33 1014.2
20260504013222 15 0 0.0 0.0 0.00 0.00 0.00 33 1014.3
20260504012757 15 0 0.0 0.0 0.00 0.00 0.00 33 1014.3
20260504012332 15 0 0.0 0.0 0.00 0.00 0.00 33 1014.3
20260504011912 15 0 0.0 0.0 0.00 0.00 0.00 33 1014.3
20260504011442 15 0 0.0 0.0 0.00 0.00 0.00 33 1014.4
20260504011013 15 0 0.0 0.0 0.00 0.00 0.00 33 1014.3
20260504010545 15 0 0.0 0.0 0.00 0.00 0.00 33 1014.3
20260504010117 15 0 0.0 0.0 0.00 0.00 0.00 33 1014.4
20260504005644 15 0 0.0 0.0 0.00 0.00 0.00 33 1014.4
20260504005212 15 0 0.0 0.0 0.00 0.00 0.00 32 1014.4
20260504004742 15 0 0.0 0.0 0.00 0.00 0.00 33 1014.3
20260504004306 15 0 0.0 0.0 0.00 0.00 0.00 33 1014.3
20260504003837 15 0 0.0 0.0 0.00 0.00 0.00 33 1014.3
20260504003407 15 0 0.0 0.0 0.00 0.00 0.00 33 1014.3
20260504002931 15 0 0.0 0.0 0.00 0.00 0.00 33 1014.3
20260504002502 15 0 0.0 0.0 0.00 0.00 0.00 32 1014.3
20260504002044 15 0 0.0 0.0 0.00 0.00 0.00 32 1014.4
20260504001611 15 0 0.0 0.0 0.00 0.00 0.00 32 1014.3
20260504001122 15 0 0.0 0.0 0.00 0.00 0.00 32 1014.4
20260504000652 15 0 0.0 0.0 0.00 0.00 0.00 32 1014.4
20260504000234 15 0 0.0 0.0 0.00 0.00 0.00 32 1014.5
20260503235816 15 0 0.0 0.0 0.00 0.00 0.00 32 1014.6
20260503235347 15 0 0.0 0.0 0.00 0.00 0.00 32 1014.5
20260503234937 15 0 0.0 0.0 0.00 0.00 0.00 32 1014.7
20260503234458 16 0 0.0 0.0 0.00 0.00 0.00 32 1014.7
20260503234036 16 0 0.0 0.0 0.00 0.00 0.00 32 1014.8
20260503233607 15 0 0.0 0.0 0.00 0.00 0.00 32 1014.7
20260503233145 15 0 0.0 0.0 0.00 0.00 0.00 32 1014.8
20260503232726 16 0 0.0 0.0 0.00 0.00 0.00 32 1014.8
20260503232257 16 0 0.0 0.0 0.00 0.00 0.00 32 1014.9
20260503231831 16 0 0.0 0.0 0.00 0.00 0.00 32 1014.8
20260503231352 16 0 0.0 0.0 0.00 0.00 0.00 32 1014.9
20260503230901 16 0 0.0 0.0 0.00 0.00 0.00 32 1014.8
20260503230433 16 0 0.0 0.0 0.00 0.00 0.00 32 1014.8
20260503230001 16 0 0.0 0.0 0.00 0.00 0.00 33 1014.8
20260503225513 16 0 0.0 0.0 0.00 0.00 0.00 32 1014.8
20260503225051 16 0 0.0 0.0 0.00 0.00 0.00 33 1014.8
20260503224622 16 0 0.0 0.0 0.00 0.00 0.00 33 1014.9
20260503224147 16 0 0.0 0.0 0.00 0.00 0.00 32 1014.8
20260503223712 16 0 0.0 0.0 0.00 0.00 0.00 33 1014.8
20260503223252 16 0 0.0 0.0 0.00 0.00 0.00 32 1014.8
20260503222837 16 0 0.0 0.0 0.00 0.00 0.00 33 1014.8
20260503222407 16 0 0.0 0.0 0.00 0.00 0.00 33 1014.8
20260503221946 16 0 0.0 0.0 0.00 0.00 0.00 33 1014.9
20260503221517 16 0 0.0 0.0 0.00 0.00 0.00 33 1014.9
20260503221042 16 0 0.0 0.0 0.00 0.00 0.00 33 1014.9
20260503220625 16 0 0.0 0.0 0.00 0.00 0.00 32 1014.9
20260503220151 16 0 0.0 0.0 0.00 0.00 0.00 32 1014.9
20260503215719 16 0 0.0 0.0 0.00 0.00 0.00 32 1015.0
20260503215312 16 0 0.0 0.0 0.00 0.00 0.00 32 1015.0
20260503214820 16 0 0.0 0.0 0.00 0.00 0.00 32 1015.1
20260503214405 16 0 0.0 0.0 0.00 0.00 0.00 32 1015.1
20260503213949 16 0 0.0 0.0 0.00 0.00 0.00 32 1015.1
20260503213517 17 0 0.0 0.0 0.00 0.00 0.00 32 1015.1
20260503213037 17 0 0.0 0.0 0.00 0.00 0.00 31 1015.0
20260503212617 17 0 0.0 0.0 0.00 0.00 0.00 31 1015.0
20260503212208 17 0 0.0 0.0 0.00 0.00 0.00 31 1015.1
20260503211737 17 0 0.0 0.0 0.00 0.00 0.00 31 1015.1
20260503211301 17 0 0.0 0.0 0.00 0.00 0.00 31 1014.9
20260503210837 17 0 0.0 0.0 0.00 0.00 0.00 30 1015.0
20260503210409 17 0 0.0 0.0 0.00 0.00 0.00 30 1015.0
20260503205932 17 0 0.0 0.0 0.00 0.00 0.00 30 1015.1
20260503205515 17 0 0.0 0.0 0.00 0.00 0.00 30 1015.1
20260503205056 17 0 0.0 0.0 0.00 0.00 0.00 29 1015.1
20260503204636 17 0 0.0 0.0 0.00 0.00 0.00 29 1015.1
20260503204225 17 0 0.0 0.0 0.00 0.00 0.00 29 1015.2
20260503203740 17 0 0.0 0.0 0.00 0.00 0.00 29 1015.2
20260503203305 17 0 0.0 0.0 0.00 0.00 0.00 29 1015.2
20260503202832 17 0 0.0 0.0 0.00 0.00 0.00 29 1015.2
20260503202417 17 0 0.0 0.0 0.00 0.00 0.00 29 1015.3
20260503201946 17 0 0.0 0.0 0.00 0.00 0.00 28 1015.2
20260503201507 17 0 0.0 0.0 0.00 0.00 0.00 28 1015.2
20260503201032 17 0 0.0 0.0 0.00 0.00 0.00 28 1015.1
20260503200552 17 0 0.0 0.0 0.00 0.00 0.00 28 1015.2
20260503200101 17 0 0.0 0.0 0.00 0.00 0.00 28 1015.2
20260503195656 17 0 0.0 0.0 0.00 0.00 0.00 27 1015.3
20260503195227 17 0 0.0 0.0 0.00 0.00 0.00 27 1015.4
20260503194801 17 0 0.0 0.0 0.00 0.00 0.00 27 1015.4
20260503194351 17 0 0.0 0.0 0.00 0.00 0.00 27 1015.4
20260503193927 17 0 0.0 0.0 0.00 0.00 0.00 27 1015.5
20260503193507 17 0 0.0 0.0 0.00 0.00 0.00 27 1015.4
20260503193027 17 0 0.0 0.0 0.00 0.00 0.00 28 1015.5
20260503192554 18 0 0.0 0.0 0.00 0.00 0.00 28 1015.5
20260503192126 17 0 0.0 0.0 0.00 0.00 0.00 28 1015.5
20260503191652 17 0 0.0 0.0 0.00 0.00 0.00 28 1015.5
20260503191230 18 0 0.0 0.0 0.00 0.00 0.00 28 1015.4
20260503190807 17 0 0.0 0.0 0.00 0.00 0.00 28 1015.4
20260503190336 17 0 0.0 0.0 0.00 0.00 0.00 28 1015.4
20260503185857 17 0 0.0 0.0 0.00 0.00 0.00 29 1015.4
20260503185429 17 0 0.0 0.0 0.00 0.00 0.00 29 1015.3
20260503185001 17 0 0.0 0.0 0.00 0.00 0.00 29 1015.3
20260503184532 18 0 0.0 0.0 0.00 0.00 0.00 29 1015.3
20260503184130 18 0 0.0 0.0 0.00 0.00 0.00 27 1015.3
20260503183656 18 0 0.0 0.0 0.00 0.00 0.00 28 1015.2
20260503183227 18 0 0.0 0.0 0.00 0.00 0.00 26 1015.2
20260503182756 18 0 0.0 0.0 0.00 0.00 0.00 26 1015.1
20260503182329 18 0 0.0 0.0 0.00 0.00 0.00 25 1015.1
20260503181857 19 0 0.0 0.0 0.00 0.00 0.00 25 1015.1
20260503181433 19 0 0.0 0.0 0.00 0.00 0.00 25 1015.0
20260503181011 19 0 0.0 0.0 0.00 0.00 0.00 24 1014.9
20260503180522 19 0 0.0 0.0 0.00 0.00 0.00 24 1015.0
20260503180107 19 0 0.0 0.0 0.00 0.00 0.00 24 1014.9
20260503175645 19 0 0.0 0.0 0.00 0.00 0.00 24 1014.9
20260503175204 20 0 0.0 0.0 0.00 0.00 0.00 24 1014.9
20260503174742 20 0 0.0 0.0 0.00 0.00 0.00 24 1014.8
20260503174312 20 0 0.0 0.0 0.00 0.00 0.00 23 1014.8
20260503173846 20 0 0.0 0.0 0.00 0.00 0.00 23 1014.8
20260503173400 20 0 0.0 0.0 0.00 0.00 0.00 23 1014.8
20260503172928 20 0 0.0 0.0 0.00 0.00 0.00 23 1014.9
20260503172457 20 0 0.0 0.0 0.00 0.00 0.00 23 1014.9
20260503172042 20 0 0.0 0.0 0.00 0.00 0.00 22 1014.9
20260503171602 20 0 0.0 0.0 0.00 0.00 0.00 22 1014.9
20260503171139 20 0 0.0 0.0 0.00 0.00 0.00 23 1014.8
20260503170710 20 0 0.0 0.0 0.00 0.00 0.00 23 1014.9
20260503170236 20 0 0.0 0.0 0.00 0.00 0.00 22 1014.8